Aérodrome :
LOGIN :

S'inscrire | Disclaimer

   EN    FR    IT 

 










Légende :    VFR   VFR Marginal   IFR   IFR Intensif   IFR Très Intensif
Visi : 
Plafond : 
>= 8 km
>= 3000ft
5 à 8 km
1000 à 3000 ft
1500m à 5 km
500 à 1000 ft
800 à 1500m
200 à 500 ft
< 800m
< 200 ft
Symboles :   Orages  Brouillard  Fortes neiges  Fortes précipitations  Vent > 20 kt
SIGMETs :   Divers  Orages  Givrage  Turbulence  Onde Orograph.  Cendres Volcan.







- Altitude de l'aérodrome : 36 ft
- Code IATA : LTQ
- Voir les cartes d'approche


LFAT - Le Touquet

DERNIER METAR :
  • 201430Z AUTO 31006KT CAVOK 15/10 Q1031 NOSIG

METARs EXPIRÉS :
  • 201400Z AUTO 32005KT 290V360 CAVOK 15/10 Q1031 NOSIG
  • 201330Z AUTO 33006KT CAVOK 15/10 Q1031 NOSIG
  • 201300Z AUTO 31004KT 260V360 CAVOK 16/10 Q1031 NOSIG
  • 201230Z AUTO VRB02KT CAVOK 17/10 Q1031 NOSIG
  • 201200Z AUTO VRB02KT CAVOK 16/10 Q1032 NOSIG

TAF TAF LFAT
Valide du 20 à 12h jusqu'au 20 à 21h UTC


201100Z 2012/2021 VRB02KT CAVOK
ATIS : +33 3 21 06 62 84
Pas de NOTAMs connus pour ce terrain.



MET'MAP, la Météo Aéronautique d'un coup d'oeil ! - Copyright ORBIFLY Décembre 2007 - Disclaimer

ORBIFLY MET'MAP TEAM :

Programmation & Développement : Alexandra Zaïnal
Conception & Développement : Baudouin d'Aumeries
Co-Programmation & Développement : Marc-Olivier Méhu
Soutien technique & logistique : Manuel Goepfert

Contact : metmap@orbifly.com




SOURCES & CREDITS :

   NOAA